Tracking 29892 objects as of 21-Nov-2024
HD Live streaming from Space Station
objects crossing your sky now

STARLINK-3360

Track STARLINK-3360 now!
10-day predictions
STARLINK-3360 is classified as:


NORAD ID: 51149
Int'l Code: 2022-005AX
Perigee: 545.7 km
Apogee: 548.0 km
Inclination: 53.2 °
Period: 95.4 minutes
Semi major axis: 6917 km
RCS: Unknown
Launch date: January 19, 2022
Source: United States (US)
Launch site: AIR FORCE EASTERN TEST RANGE (AFETR)
Your satellite tracking list
Your tracking list is empty




NASA's NSSDC Master Catalog

Two Line Element Set (TLE):
1 51149U 22005AX  24325.90867328  .00001617  00000-0  11968-3 0  9991
2 51149  53.2183 275.8251 0001670 102.8054 257.3125 15.08836603157073
Source of the keplerian elements: AFSPC